Weather in Huế

Vietnam     16°27′41″N   107°35′30″E
temp.,
°C
wind,
m/s
gust,
m/s
humid.,
%
clouds,
%
prec.,
mm/h
press.,
hPa
HPBL,
m
9 may, sun
sun901:00+24s227398 0.0 100728
04:00+23wsw117344 0.0 100722
07:00+28s11565 0.0 1008153
10:00+34ne33405 0.0 10081035
13:00+35ne534536 0.0 1006935
16:00+34e454713 0.0 1004703
19:00+26se23833 1.3 100549
22:00+24s228679 0.3 100724
10 may, mon
mon1001:00+24sw118853 1.8 100519
04:00+23ssw11875 0.0 100522
07:00+27s117241 0.0 1007102
10:00+35ne32435 0.0 1007997
13:00+35ene54458 0.0 1004901
16:00+35e44455 0.1 1003885
19:00+26ssw228111 1.3 100527
22:00+25ssw11865 0.4 100612
11 may, tue
tue1101:00+25s228266 0.4 100435
04:00+24sw118460 1.2 100520
07:00+27s117517 1.4 100799
10:00+35ne33457 0.0 10071093
13:00+35ne334986 0.1 1005867
16:00+29e236983 0.4 1004278
19:00+26sse4686100 0.9 1005128
22:00+25s228541 0.0 100655
12 may, wed
wed1201:00+25s248226 0.0 100469
04:00+25sse227685 0.0 100430
07:00+29wsw126155 0.0 1006122
10:00+36nne434325 0.0 10061232
13:00+35ne434870 0.1 1004753
16:00+32ene335999 0.1 1002647
19:00+29se236935 0.2 100451
22:00+26s22804 0.3 100537
13 may, thu
thu1301:00+25s228795 1.1 100437
04:00+25s118441 0.2 100429
07:00+26ssw128136 2.4 100675
10:00+34n2249100 0.3 1006626
13:00+35ne544761 0.3 1003970
16:00+35ene434737 0.0 10021172
19:00+28ese23734 0.0 100359
22:00+27se22745 0.0 100432